Weather in Baldone

Latvia     56°44′32″N   24°23′34″E
temp.,
°C
wind,
m/s
gust,
m/s
humid.,
%
clouds,
%
prec.,
mm/h
press.,
hPa
HPBL,
m
27 october, wed
wed2700:00+8sw41193100 1.9 1012593
03:00+9wsw41095100 1.9 1012617
06:00+7wsw4119660 0.0 1013509
09:00+6sw3109636 0.0 1014464
12:00+10wsw4118077 0.0 1015707
15:00+11sw51082100 0.1 1013919
18:00+9ssw61592100 3.3 10101094
21:00+11wsw71693100 5.8 10081139
28 october, thu
thu2800:00+12wsw51392100 0.8 1009969
03:00+12w51292100 0.8 1011938
06:00+12w41090100 0.1 1013692
09:00+12wnw3892100 0.2 1016624
12:00+12wnw2586100 0.1 1018600
15:00+13wsw138187 0.1 1020192
18:00+11ssw2493100 0.0 102170
21:00+11ssw3796100 0.0 1021309
29 october, fri
fri2900:00+11sw4992100 0.0 1022447
03:00+9ssw399696 0.0 1022274
06:00+8ssw3996100 0.0 1023220
09:00+8s31096100 0.0 1023248
12:00+12s4118391 0.0 1022411
15:00+13s4107715 0.0 1022540
18:00+11s4128651 0.0 1021446
21:00+11s5148827 0.0 1020523
30 october, sat
sat3000:00+11s5159149 0.0 1020570
03:00+10sse413935 0.0 1019488
06:00+9sse4139278 0.0 1018445
09:00+9sse5148930 0.0 1017474
12:00+11s51477100 0.0 1017640
15:00+13s512695 0.0 1016757
18:00+11s513745 0.0 1016583
21:00+10s4137596 0.0 1017514
31 october, sun
sun3100:00+9ssw41074100 0.0 1017343
03:00+7s378280 0.0 1018154
05:00+6s268622 0.0 1018125
08:00+6sse278623 0.0 1017153
11:00+10sse3970100 0.0 1016307
14:00+11sse3967100 0.0 1014479
17:00+10sse41276100 0.0 1012373
20:00+10sse51473100 0.0 1010531